User: anonymous   Login
Location: Unspecified
(0.0000°N, 0.0000°E)
Time: 11:07:54
(UTC+00:00)
Language:

Explorer 11/Cluster Stage 4 - Orbit

View from above orbital plane
View from above orbital plane
View from above satellite
View from above satellite

Ground track
Ground track

The orbit data is extracted from the following two-line orbital elements,

1 00107U 61013A   16204.67942174  .00000415  00000-0  38049-4 0  9990
2 00107  28.7884 308.6880 0550948  25.2444 337.4027 14.07926566764584
Epoch (UTC): 22 July 2016 16:18:22
Eccentricity: 0.0550948
inclination: 28.7884°
perigee height: 467 km
apogee height: 1265 km
right ascension of ascending node: 308.6880°
argument of perigee: 25.2444°
revolutions per day: 14.07926566
mean anomaly at epoch: 337.4027°
orbit number at epoch: 76458

The dashed part of the orbit path shows where the satellite is in the earth's shadow,  

DLR